Location: Home
(42.5358°N, 72.7383°W)
Time: 09:58:14
(UTC-05:00)

Transit 4A - Pass Details

Date: 30 November 2021
Orbit: 864 x 981 km, 66.8° (Epoch: 21 January)

Event Time Altitude Azimuth Distance (km) Brightness Sun altitude
Exits shadow 02:52:35 16° 46° (NE) 2,298 10.3 -44.9°
Drops below altitude 10° 02:55:24 10° 73° (ENE) 2,703 10.9 -44.4°
Sets 02:59:06 0° 93° (E) 3,663 11.8 -43.7°
